2017-008BB

Last updated on Sat Apr 08 2017 00:17:57 GMT+0000 (Coordinated Universal Time)

1 41997U 17008BB 17096.89668407 .00003583 00000-0 15942-3 0 9990 2 41997 97.5041 158.4377 0010626 100.6105 259.6328 15.22092726 7009
UTC large
Height (km)
Speed (km/s)
/
Latitude / Longitude
Inclination (degrees)
Orbital Period (minutes)
Azimuth
Elevation
Range (km)
Doppler Factor

Next 0 passes for location: London (51.5072 / 0.1276)

Sorry there are no passes over London.